Location: Dana
(41.8364°N, 106.7042°W)
Time: 03:55:22
(UTC+00:00)

Vanguard 1 Rocket - Pass Details

Date: 15 May 2026
Orbit: 656 x 4211 km, 34.3° (Epoch: 9 June)

Event Time Altitude Azimuth Distance (km) Brightness Sun altitude
Rises 03:53:18 0° 280° (W) 6,305 12.7 -15.1°
Reaches altitude 10° 03:57:08 10° 274° (W) 5,697 12.2 -15.6°
Maximum altitude 04:14:39 44° 211° (SSW) 4,781 10.8 -17.9°
Enters shadow 04:31:40 21° 157° (SSE) 6,459 11.1 -19.9°
